SCP
0 0 0 0 0 0 0 0 0 0 0 0 0 0 0 0 0 0 0 0 0 0 0 0 0 0 0 0 0 0 0 0 0 0 0 0 0 0 0 0 0 0 0
0 0 0 0 0 0 0 0 0 0 0 0 0 0 0 0 0 0 0 0 0 0 0 0 0 0 0 0 0 0 0 0 0 0 0 0 0 0 0 0 0 0 0
0 0 0 0 0 0 0 0 0 0 0 0 0 0 0 0 0 0 0 0 0 0 0 0 0 0 0 0 0 0 0 0 0 0 0 0 0 0 0 0 0 0 0
0 0 0 0 0 0 0 0 0 0 0 0 0 0 0 0 0 0 0 0 0 0 0 0 0 0 0 0 0 0 0 0 0 0 0 0 0 0 0 0 0 0 0
0 0 0 0 0 0 0 0 0 0 0 0 0 0 0 0 0 0 0 0 0 0 0 0 0 0 0 0 0 0 0 0 0 0 0 0 0 0 0 0 0 0 0
0 0 0 0 0 0 0 0 0 0 0 0 0 0 0 0 0 0 0 0 0 0 0 0 0 0 0 0 0 0 0 0 0 0 0 0 0 0 0 0 0 0 0
0 0 0 0 0 0 0 0 0 0 0 0 0 0 0 0 0 0 0 0 0 0 0 0 0 0 0 0 0 0 0 0 0 0 0 0 0 0 0 0 0 0 0
0 0 0 0 0 0 0 0 0 0 0 0 0 0 0 0 0 0 0 0 0 0 0 0 0 0 0 0 0 0 0 0 0 0 0 0 0 0 0 0 0 0 0
0 0 0 0 0 0 0 0 0 0 0 0 0 0 0 0 0 0 0 0 0 0 0 0 0 0 0 0 0 0 0 0 0 0 0 0 0 0 0 0 0 0 0
0 0 0 0 0 0 0 0 0 0 0 0 0 0 0 0 0 0 0 0 0 0 0 0 0 0 0 0 0 0 0 0 0 0 0 0 0 0 0 0 0 0 0
0 0 0 0 0 0 0 0 0 0 0 0 0 0 0 0 0 0 0 0 0 0 0 0 0 0 0 0 0 0 0 0 0 0 0 0 0 0 0 0 0 0 0
0 0 0 0 0 0 0 0 0 0 0 0 0 0 0 0 0 0 0 0 0 0 0 0 0 0 0 0 0 0 0 0 0 0 0 0 0 0 0 0 0 0 0
0 0 0 0 0 0 0 0 0 0 0 0 0 0 0 0 0 0 0 0 0 0 0 0 0 0 0 0 0 0 0 0 0 0 0 0 0 0 0 0 0 0 0
0 0 0 0 0 0 0 0 0 0 0 0 0 0 0 0 0 0 0 0 0 0 0 0 0 0 0 0 0 0 0 0 0 0 0 0 0 0 0 0 0 0 0
0 0 0 0 0 0 0 0 0 0 0 0 0 0 0 0 0 0 0 0 0 0 0 0 0 0 0 0 0 0 0 0 0 0 0 0 0 0 0 0 0 0 0
0 0 0 0 0 0 0 0 0 0 0 0 0 0 0 0 0 0 0 0 0 0 0 0 0 0 0 0 0 0 0 0 0 0 0 0 0 0 0 0 0 0 0
0 0 0 0 0 0 0 0 0 0 0 0 0 0 0 0 0 0 0 0 0 0 0 0 0 0 0 0 0 0 0 0 0 0 0 0 0 0 0 0 0 0 0
0 0 0 0 0 0 0 0 0 0 0 0 0 0 0 0 0 0 0 0 0 0 0 0 0 0 0 0 0 0 0 0 0 0 0 0 0 0 0 0 0 0 0
0 0 0 0 0 0 0 0 0 0 0 0 0 0 0 0 0 0 0 0 0 0 0 0 0 0 0 0 0 0 0 0 0 0 0 0 0 0 0 0 0 0 0
0 0 0 0 0 0 0 0 0 0 0 0 0 0 0 0 0 0 0 0 0 0 0 0 0 0 0 0 0 0 0 0 0 0 0 0 0 0 0 0 0 0 0
0 0 0 0 0 0 0 0 0 0 0 0 0 0 0 0 0 0 0 0 0 0 0 0 0 0 0 0 0 0 0 0 0 0 0 0 0 0 0 0 0 0 0
0 0 0 0 0 0 0 0 0 0 0 0 0 0 0 0 0 0 0 0 0 0 0 0 0 0 0 0 0 0 0 0 0 0 0 0 0 0 0 0 0 0 0
0 0 0 0 0 0 0 0 0 0 0 0 0 0 0 0 0 0 0 0 0 0 0 0 0 0 0 0 0 0 0 0 0 0 0 0 0 0 0 0 0 0 0
0 0 0 0 0 0 0 0 0 0 0 0 0 0 0 0 0 0 0 0 0 0 0 0 0 0 0 0 0 0 0 0 0 0 0 0 0 0 0 0 0 0 0
0 0 0 0 0 0 0 0 0 0 0 0 0 0 0 0 0 0 0 0 0 0 0 0 0 0 0 0 0 0 0 0 0 0 0 0 0 0 0 0 0 0 0
0 0 0 0 0 0 0 0 0 0 0 0 0 -0 -0 -0 -0 0 -0 0 0 0 0 0 0 0 0 0 0 0 0 0 0 0 0 0 0 0 0 0 0 0 0
Wind_Speed_500mb
26 27 27 29 30 29 27 26 25 24 24 23 23 23 24 25 26 27 28 27 26 26 24 20 20 21 25 32 24 32 34 24 26 23 22 22 19 16 10 10 9 9 6
39 33 28 21 26 30 31 31 31 30 29 28 26 25 25 25 26 26 27 27 27 26 26 23 22 24 28 33 29 31 34 35 33 32 30 27 27 18 19 20 24 20 17
53 50 45 42 31 26 30 33 34 35 34 33 31 30 28 28 28 28 28 28 28 28 27 25 24 26 30 32 31 33 37 40 41 40 40 38 36 34 32 35 30 26 22
58 62 60 55 51 43 39 36 35 37 37 37 37 35 34 32 31 31 31 31 30 29 29 28 25 26 29 30 32 32 35 38 42 45 49 49 47 40 42 38 34 25 26
59 64 68 66 61 56 53 50 44 40 39 38 39 40 40 40 37 36 35 34 33 33 32 31 30 27 28 30 31 32 33 35 35 38 42 47 51 52 51 48 48 47 45
41 52 60 66 66 64 62 60 56 51 46 44 43 43 45 45 45 43 41 39 39 37 37 35 35 32 30 29 31 34 33 33 34 35 36 37 39 41 46 52 53 52 52
33 34 39 49 57 68 66 66 65 64 58 53 51 48 50 50 51 50 49 46 46 43 43 41 40 37 35 33 31 29 32 31 32 35 35 36 37 38 39 41 42 44 49
39 37 37 38 40 52 66 68 73 73 70 65 63 55 37 44 49 48 52 54 53 50 50 47 45 42 39 38 34 31 29 30 26 26 30 32 35 37 40 41 41 41 43
43 40 39 40 40 41 45 59 69 76 80 76 71 56 20 30 36 35 38 41 48 50 48 47 49 47 44 42 38 35 32 29 29 28 27 28 27 29 33 37 41 41 42
45 46 44 41 39 40 43 41 45 65 70 80 79 80 74 59 31 27 36 41 45 46 42 40 44 47 47 46 43 39 36 33 32 31 31 31 26 25 27 26 32 35 38
47 48 50 51 48 44 42 43 42 43 48 62 77 70 75 80 78 68 42 44 52 53 50 45 43 45 48 48 48 45 41 37 36 35 33 34 32 30 26 25 24 26 27
55 53 55 54 52 50 47 43 42 44 47 50 55 66 76 67 76 83 73 56 67 58 53 48 46 46 47 50 50 47 46 43 40 39 37 37 36 34 32 28 27 27 26
66 64 58 60 56 52 52 50 45 45 46 52 52 54 63 77 79 72 68 61 66 66 62 58 54 51 49 51 53 52 50 48 45 43 41 40 39 38 38 35 33 34 32
74 75 66 57 58 56 57 55 51 50 48 50 54 57 57 64 72 84 88 68 57 64 68 66 58 53 50 51 52 53 55 53 50 46 45 43 43 42 42 42 43 43 41
81 74 66 59 58 58 59 58 57 54 51 51 53 54 58 61 66 72 74 86 76 61 53 71 66 59 52 50 52 56 59 55 52 49 46 46 46 48 49 50 50 49 49
83 72 62 59 58 59 60 62 60 59 55 57 55 53 53 55 58 68 66 72 82 77 69 52 58 62 54 52 53 56 58 55 55 51 48 49 51 51 51 50 51 54 55
74 64 61 57 52 58 57 56 60 63 61 58 57 55 54 53 53 57 62 67 73 77 77 69 69 60 54 51 51 56 57 59 56 52 51 54 52 52 52 53 55 58 61
60 59 55 59 56 50 55 59 64 66 60 57 55 56 56 49 55 53 59 63 70 70 78 77 74 75 63 59 52 51 54 55 55 55 56 54 53 54 56 58 60 61 60
63 65 57 57 59 58 55 57 60 55 58 59 60 57 57 54 55 56 64 61 66 65 76 74 70 72 70 64 61 56 57 58 61 59 57 56 57 58 59 59 58 55 51
66 64 68 73 63 59 51 43 45 51 57 60 65 67 65 62 60 57 66 66 64 65 69 75 65 75 73 71 66 62 64 61 62 60 59 60 61 60 59 61 58 57 56
66 62 69 65 63 61 57 55 57 56 57 64 66 67 70 68 64 61 60 68 64 69 68 71 68 78 77 76 75 70 63 61 59 62 61 64 60 62 60 61 62 59 57
67 68 68 67 66 61 58 56 48 49 52 56 64 65 60 58 58 55 58 67 68 69 70 75 77 86 84 76 75 66 59 58 55 63 62 58 54 52 53 57 54 54 56
64 70 67 68 65 58 56 55 52 50 55 58 60 58 60 57 51 49 56 64 72 67 62 77 76 85 80 76 72 65 60 60 57 54 55 65 57 59 55 53 49 49 52
65 67 64 67 57 56 52 53 51 57 67 66 64 65 68 67 67 55 54 58 66 75 66 69 69 65 69 63 59 57 54 51 54 59 56 62 55 58 55 52 47 47 51
58 64 64 68 68 68 58 58 60 65 75 74 66 66 73 71 71 63 56 64 65 66 68 59 59 54 54 51 55 53 52 50 52 54 46 50 58 50 44 47 48 46 43
57 63 52 55 57 57 59 63 64 73 75 70 67 70 66 67 64 60 61 78 67 56 63 62 58 48 56 53 48 49 48 46 41 46 46 37 38 41 34 52 42 40 42
Wind_Direction_500mb
286 286 286 281 276 272 269 268 267 269 270 269 265 262 260 257 254 256 258 260 262 265 270 265 258 246 225 227 232 225 222 217 218 222 229 231 234 233 228 229 235 246 283
268 266 269 277 286 279 273 268 265 264 267 270 270 265 262 261 259 257 257 261 264 265 267 267 259 247 242 244 240 233 233 232 228 230 232 231 224 224 228 239 253 249 246
262 260 257 260 255 262 270 269 267 266 266 267 269 269 266 264 265 264 263 263 264 266 266 265 259 251 248 250 246 239 236 237 234 230 231 234 234 236 238 236 251 259 258
267 259 255 251 254 252 249 255 262 264 265 266 268 269 267 266 267 268 269 268 265 264 264 264 261 255 252 252 250 244 241 240 239 237 236 235 235 239 236 239 240 242 251
267 266 262 256 249 251 249 248 249 257 261 264 264 265 266 266 266 266 270 270 267 265 264 262 261 256 253 251 250 247 243 242 241 240 240 240 240 240 242 244 244 245 246
281 273 270 266 257 248 247 248 249 251 256 260 261 262 262 262 262 265 269 268 267 266 263 260 259 258 255 255 252 248 246 243 244 243 242 242 243 243 245 246 245 244 246
300 295 285 275 265 257 247 244 248 252 253 255 257 260 261 262 263 262 263 264 264 264 261 258 256 257 254 252 252 249 240 248 242 246 244 245 245 245 245 246 247 246 245
296 296 294 292 285 267 255 248 246 247 248 248 250 251 256 264 260 264 261 259 259 258 257 254 254 255 253 250 248 245 236 232 235 244 255 247 250 249 248 249 250 250 249
296 295 295 293 289 286 274 259 251 247 248 249 248 242 226 236 257 264 261 255 253 254 254 252 252 251 250 249 243 241 239 241 237 235 249 263 259 258 253 251 250 250 252
299 297 298 297 293 287 281 279 267 253 250 246 248 245 243 246 253 259 250 249 251 257 256 251 251 249 249 248 243 243 241 243 241 244 256 252 253 255 261 253 255 254 254
298 294 293 293 293 289 285 281 273 268 261 255 250 249 246 247 249 250 253 254 257 256 256 257 255 249 246 246 243 243 242 244 245 251 257 252 254 255 248 250 258 258 260
296 296 294 288 285 283 282 281 280 276 270 263 256 253 250 243 245 247 250 250 262 261 258 250 251 251 248 245 245 244 243 244 247 256 258 254 258 254 252 248 253 258 261
296 298 295 287 281 277 274 277 279 275 274 271 268 260 258 252 247 250 252 256 258 266 260 256 251 249 246 245 245 244 244 246 249 259 258 258 258 256 255 252 253 254 258
291 297 293 278 279 275 267 270 278 280 278 272 270 271 265 259 257 249 245 247 252 257 261 252 251 248 245 246 246 244 245 245 250 258 257 258 258 258 256 257 259 261 263
290 294 286 283 272 265 258 263 272 276 276 277 273 268 268 267 261 257 251 245 242 247 252 257 251 250 246 245 244 241 244 246 252 254 254 257 259 261 262 264 265 266 267
286 287 281 282 274 262 257 261 265 268 272 272 277 275 272 271 268 264 260 253 246 242 246 251 256 254 248 243 241 238 241 244 249 250 252 259 260 262 264 264 265 267 265
280 280 283 281 280 264 257 254 258 266 266 268 268 275 273 271 270 267 263 259 250 245 238 244 252 250 244 239 235 235 239 242 244 245 254 258 261 262 263 266 267 266 265
276 278 287 281 283 263 263 261 262 263 260 265 266 270 275 275 266 266 265 263 254 247 246 240 247 248 243 241 236 235 236 237 239 246 256 259 261 262 266 268 266 265 267
288 280 281 282 283 276 279 265 261 254 253 263 268 270 273 276 272 263 263 265 264 247 252 236 236 245 242 236 231 228 231 235 243 252 257 260 263 267 269 268 267 268 268
283 278 281 282 278 275 275 258 257 260 263 265 269 271 271 272 270 268 265 263 263 255 247 239 227 237 237 233 230 229 231 238 248 254 258 262 266 268 267 265 268 267 265
282 278 283 279 273 269 268 264 269 275 269 273 273 269 271 267 266 262 261 260 258 248 239 239 230 231 230 228 228 231 234 241 247 252 259 263 266 267 268 267 267 264 261
280 279 280 277 274 266 267 266 273 267 270 273 276 277 274 270 261 256 250 257 255 253 242 234 229 230 229 230 232 234 234 237 246 255 262 265 263 262 265 267 264 263 259
279 278 281 280 276 268 268 264 272 268 269 271 272 272 272 264 259 258 251 242 250 252 250 240 234 230 229 231 235 234 234 239 249 259 266 270 269 273 274 267 261 254 250
280 278 278 280 276 279 265 266 270 271 271 270 266 265 262 263 261 256 258 252 243 240 245 233 230 233 240 238 237 237 240 246 251 258 265 270 275 279 278 275 263 253 247
278 279 274 277 270 273 267 269 274 277 278 275 268 261 259 263 259 253 252 251 251 239 239 237 225 224 233 227 227 231 234 242 256 265 261 263 281 285 282 280 272 264 260
281 277 274 275 272 275 276 277 279 277 273 266 268 262 258 258 253 250 240 239 246 236 232 228 219 211 218 222 225 234 242 250 255 272 277 250 277 286 296 294 284 265 251
Wind_Speed_850mb
26 27 27 29 30 29 27 26 25 24 24 23 23 23 24 25 26 27 28 27 26 26 24 20 20 21 25 32 24 32 34 24 26 23 22 22 19 16 10 10 9 9 6
39 33 28 21 26 30 31 31 31 30 29 28 26 25 25 25 26 26 27 27 27 26 26 23 22 24 28 33 29 31 34 35 33 32 30 27 27 18 19 20 24 20 17
53 50 45 42 31 26 30 33 34 35 34 33 31 30 28 28 28 28 28 28 28 28 27 25 24 26 30 32 31 33 37 40 41 40 40 38 36 34 32 35 30 26 22
58 62 60 55 51 43 39 36 35 37 37 37 37 35 34 32 31 31 31 31 30 29 29 28 25 26 29 30 32 32 35 38 42 45 49 49 47 40 42 38 34 25 26
59 64 68 66 61 56 53 50 44 40 39 38 39 40 40 40 37 36 35 34 33 33 32 31 30 27 28 30 31 32 33 35 35 38 42 47 51 52 51 48 48 47 45
41 52 60 66 66 64 62 60 56 51 46 44 43 43 45 45 45 43 41 39 39 37 37 35 35 32 30 29 31 34 33 33 34 35 36 37 39 41 46 52 53 52 52
33 34 39 49 57 68 66 66 65 64 58 53 51 48 50 50 51 50 49 46 46 43 43 41 40 37 35 33 31 29 32 31 32 35 35 36 37 38 39 41 42 44 49
39 37 37 38 40 52 66 68 73 73 70 65 63 55 37 44 49 48 52 54 53 50 50 47 45 42 39 38 34 31 29 30 26 26 30 32 35 37 40 41 41 41 43
43 40 39 40 40 41 45 59 69 76 80 76 71 56 20 30 36 35 38 41 48 50 48 47 49 47 44 42 38 35 32 29 29 28 27 28 27 29 33 37 41 41 42
45 46 44 41 39 40 43 41 45 65 70 80 79 80 74 59 31 27 36 41 45 46 42 40 44 47 47 46 43 39 36 33 32 31 31 31 26 25 27 26 32 35 38
47 48 50 51 48 44 42 43 42 43 48 62 77 70 75 80 78 68 42 44 52 53 50 45 43 45 48 48 48 45 41 37 36 35 33 34 32 30 26 25 24 26 27
55 53 55 54 52 50 47 43 42 44 47 50 55 66 76 67 76 83 73 56 67 58 53 48 46 46 47 50 50 47 46 43 40 39 37 37 36 34 32 28 27 27 26
66 64 58 60 56 52 52 50 45 45 46 52 52 54 63 77 79 72 68 61 66 66 62 58 54 51 49 51 53 52 50 48 45 43 41 40 39 38 38 35 33 34 32
74 75 66 57 58 56 57 55 51 50 48 50 54 57 57 64 72 84 88 68 57 64 68 66 58 53 50 51 52 53 55 53 50 46 45 43 43 42 42 42 43 43 41
81 74 66 59 58 58 59 58 57 54 51 51 53 54 58 61 66 72 74 86 76 61 53 71 66 59 52 50 52 56 59 55 52 49 46 46 46 48 49 50 50 49 49
83 72 62 59 58 59 60 62 60 59 55 57 55 53 53 55 58 68 66 72 82 77 69 52 58 62 54 52 53 56 58 55 55 51 48 49 51 51 51 50 51 54 55
74 64 61 57 52 58 57 56 60 63 61 58 57 55 54 53 53 57 62 67 73 77 77 69 69 60 54 51 51 56 57 59 56 52 51 54 52 52 52 53 55 58 61
60 59 55 59 56 50 55 59 64 66 60 57 55 56 56 49 55 53 59 63 70 70 78 77 74 75 63 59 52 51 54 55 55 55 56 54 53 54 56 58 60 61 60
63 65 57 57 59 58 55 57 60 55 58 59 60 57 57 54 55 56 64 61 66 65 76 74 70 72 70 64 61 56 57 58 61 59 57 56 57 58 59 59 58 55 51
66 64 68 73 63 59 51 43 45 51 57 60 65 67 65 62 60 57 66 66 64 65 69 75 65 75 73 71 66 62 64 61 62 60 59 60 61 60 59 61 58 57 56
66 62 69 65 63 61 57 55 57 56 57 64 66 67 70 68 64 61 60 68 64 69 68 71 68 78 77 76 75 70 63 61 59 62 61 64 60 62 60 61 62 59 57
67 68 68 67 66 61 58 56 48 49 52 56 64 65 60 58 58 55 58 67 68 69 70 75 77 86 84 76 75 66 59 58 55 63 62 58 54 52 53 57 54 54 56
64 70 67 68 65 58 56 55 52 50 55 58 60 58 60 57 51 49 56 64 72 67 62 77 76 85 80 76 72 65 60 60 57 54 55 65 57 59 55 53 49 49 52
65 67 64 67 57 56 52 53 51 57 67 66 64 65 68 67 67 55 54 58 66 75 66 69 69 65 69 63 59 57 54 51 54 59 56 62 55 58 55 52 47 47 51
58 64 64 68 68 68 58 58 60 65 75 74 66 66 73 71 71 63 56 64 65 66 68 59 59 54 54 51 55 53 52 50 52 54 46 50 58 50 44 47 48 46 43
57 63 52 55 57 57 59 63 64 73 75 70 67 70 66 67 64 60 61 78 67 56 63 62 58 48 56 53 48 49 48 46 41 46 46 37 38 41 34 52 42 40 42
Wind_Direction_850mb
286 286 286 281 276 272 269 268 267 269 270 269 265 262 260 257 254 256 258 260 262 265 270 265 258 246 225 227 232 225 222 217 218 222 229 231 234 233 228 229 235 246 283
268 266 269 277 286 279 273 268 265 264 267 270 270 265 262 261 259 257 257 261 264 265 267 267 259 247 242 244 240 233 233 232 228 230 232 231 224 224 228 239 253 249 246
262 260 257 260 255 262 270 269 267 266 266 267 269 269 266 264 265 264 263 263 264 266 266 265 259 251 248 250 246 239 236 237 234 230 231 234 234 236 238 236 251 259 258
267 259 255 251 254 252 249 255 262 264 265 266 268 269 267 266 267 268 269 268 265 264 264 264 261 255 252 252 250 244 241 240 239 237 236 235 235 239 236 239 240 242 251
267 266 262 256 249 251 249 248 249 257 261 264 264 265 266 266 266 266 270 270 267 265 264 262 261 256 253 251 250 247 243 242 241 240 240 240 240 240 242 244 244 245 246
281 273 270 266 257 248 247 248 249 251 256 260 261 262 262 262 262 265 269 268 267 266 263 260 259 258 255 255 252 248 246 243 244 243 242 242 243 243 245 246 245 244 246
300 295 285 275 265 257 247 244 248 252 253 255 257 260 261 262 263 262 263 264 264 264 261 258 256 257 254 252 252 249 240 248 242 246 244 245 245 245 245 246 247 246 245
296 296 294 292 285 267 255 248 246 247 248 248 250 251 256 264 260 264 261 259 259 258 257 254 254 255 253 250 248 245 236 232 235 244 255 247 250 249 248 249 250 250 249
296 295 295 293 289 286 274 259 251 247 248 249 248 242 226 236 257 264 261 255 253 254 254 252 252 251 250 249 243 241 239 241 237 235 249 263 259 258 253 251 250 250 252
299 297 298 297 293 287 281 279 267 253 250 246 248 245 243 246 253 259 250 249 251 257 256 251 251 249 249 248 243 243 241 243 241 244 256 252 253 255 261 253 255 254 254
298 294 293 293 293 289 285 281 273 268 261 255 250 249 246 247 249 250 253 254 257 256 256 257 255 249 246 246 243 243 242 244 245 251 257 252 254 255 248 250 258 258 260
296 296 294 288 285 283 282 281 280 276 270 263 256 253 250 243 245 247 250 250 262 261 258 250 251 251 248 245 245 244 243 244 247 256 258 254 258 254 252 248 253 258 261
296 298 295 287 281 277 274 277 279 275 274 271 268 260 258 252 247 250 252 256 258 266 260 256 251 249 246 245 245 244 244 246 249 259 258 258 258 256 255 252 253 254 258
291 297 293 278 279 275 267 270 278 280 278 272 270 271 265 259 257 249 245 247 252 257 261 252 251 248 245 246 246 244 245 245 250 258 257 258 258 258 256 257 259 261 263
290 294 286 283 272 265 258 263 272 276 276 277 273 268 268 267 261 257 251 245 242 247 252 257 251 250 246 245 244 241 244 246 252 254 254 257 259 261 262 264 265 266 267
286 287 281 282 274 262 257 261 265 268 272 272 277 275 272 271 268 264 260 253 246 242 246 251 256 254 248 243 241 238 241 244 249 250 252 259 260 262 264 264 265 267 265
280 280 283 281 280 264 257 254 258 266 266 268 268 275 273 271 270 267 263 259 250 245 238 244 252 250 244 239 235 235 239 242 244 245 254 258 261 262 263 266 267 266 265
276 278 287 281 283 263 263 261 262 263 260 265 266 270 275 275 266 266 265 263 254 247 246 240 247 248 243 241 236 235 236 237 239 246 256 259 261 262 266 268 266 265 267
288 280 281 282 283 276 279 265 261 254 253 263 268 270 273 276 272 263 263 265 264 247 252 236 236 245 242 236 231 228 231 235 243 252 257 260 263 267 269 268 267 268 268
283 278 281 282 278 275 275 258 257 260 263 265 269 271 271 272 270 268 265 263 263 255 247 239 227 237 237 233 230 229 231 238 248 254 258 262 266 268 267 265 268 267 265
282 278 283 279 273 269 268 264 269 275 269 273 273 269 271 267 266 262 261 260 258 248 239 239 230 231 230 228 228 231 234 241 247 252 259 263 266 267 268 267 267 264 261
280 279 280 277 274 266 267 266 273 267 270 273 276 277 274 270 261 256 250 257 255 253 242 234 229 230 229 230 232 234 234 237 246 255 262 265 263 262 265 267 264 263 259
279 278 281 280 276 268 268 264 272 268 269 271 272 272 272 264 259 258 251 242 250 252 250 240 234 230 229 231 235 234 234 239 249 259 266 270 269 273 274 267 261 254 250
280 278 278 280 276 279 265 266 270 271 271 270 266 265 262 263 261 256 258 252 243 240 245 233 230 233 240 238 237 237 240 246 251 258 265 270 275 279 278 275 263 253 247
278 279 274 277 270 273 267 269 274 277 278 275 268 261 259 263 259 253 252 251 251 239 239 237 225 224 233 227 227 231 234 242 256 265 261 263 281 285 282 280 272 264 260
281 277 274 275 272 275 276 277 279 277 273 266 268 262 258 258 253 250 240 239 246 236 232 228 219 211 218 222 225 234 242 250 255 272 277 250 277 286 296 294 284 265 251